owner,sensor,date,latitude,longitude,vertical_datum,sea_water_practical_salinity,qcFlag 
DISL,ioos:station:DISL:MHPA:1,2015-07-01T00:00:00Z,30.6671,-87.9365,0.926,0.25,1111122 
DISL,ioos:station:DISL:MHPA:1,2015-07-01T00:30:00Z,30.6671,-87.9365,0.889,0.25,1111122 
DISL,ioos:station:DISL:MHPA:1,2015-07-01T01:00:00Z,30.6671,-87.9365,0.857,0.25,1111122 
DISL,ioos:station:DISL:MHPA:1,2015-07-01T01:30:00Z,30.6671,-87.9365,0.819,0.26,1111122 
DISL,ioos:station:DISL:MHPA:1,2015-07-01T02:00:00Z,30.6671,-87.9365,0.786,0.25,1111122 
DISL,ioos:station:DISL:MHPA:1,2015-07-01T02:30:00Z,30.6671,-87.9365,0.758,0.25,1111122 
DISL,ioos:station:DISL:MHPA:1,2015-07-01T03:00:00Z,30.6671,-87.9365,0.738,0.25,1111122 
DISL,ioos:station:DISL:MHPA:1,2015-07-01T03:30:00Z,30.6671,-87.9365,0.747,0.25,1111122 
DISL,ioos:station:DISL:MHPA:1,2015-07-01T04:00:00Z,30.6671,-87.9365,0.775,0.25,1111122 
DISL,ioos:station:DISL:MHPA:1,2015-07-01T04:30:00Z,30.6671,-87.9365,0.804,0.26,1111122 
DISL,ioos:station:DISL:MHPA:1,2015-07-01T05:00:00Z,30.6671,-87.9365,0.817,0.25,1111122 
DISL,ioos:station:DISL:MHPA:1,2015-07-01T05:30:00Z,30.6671,-87.9365,0.827,0.25,1111122 
DISL,ioos:station:DISL:MHPA:1,2015-07-01T06:00:00Z,30.6671,-87.9365,0.824,0.25,1111122 
DISL,ioos:station:DISL:MHPA:1,2015-07-01T06:30:00Z,30.6671,-87.9365,0.827,0.25,1111122 
DISL,ioos:station:DISL:MHPA:1,2015-07-01T07:00:00Z,30.6671,-87.9365,0.841,0.25,1111122 
DISL,ioos:station:DISL:MHPA:1,2015-07-01T07:30:00Z,30.6671,-87.9365,0.867,0.25,1111122 
DISL,ioos:station:DISL:MHPA:1,2015-07-01T08:00:00Z,30.6671,-87.9365,0.881,0.25,1111122 
DISL,ioos:station:DISL:MHPA:1,2015-07-01T08:30:00Z,30.6671,-87.9365,0.928,0.25,1111122 
DISL,ioos:station:DISL:MHPA:1,2015-07-01T09:00:00Z,30.6671,-87.9365,0.98,0.25,1111122 
DISL,ioos:station:DISL:MHPA:1,2015-07-01T09:30:00Z,30.6671,-87.9365,1.003,0.25,1111122 
DISL,ioos:station:DISL:MHPA:1,2015-07-01T10:00:00Z,30.6671,-87.9365,1.03,0.25,1111122 
DISL,ioos:station:DISL:MHPA:1,2015-07-01T10:30:00Z,30.6671,-87.9365,1.04,0.25,1111122 
DISL,ioos:station:DISL:MHPA:1,2015-07-01T11:00:00Z,30.6671,-87.9365,1.04,0.25,1111122 
DISL,ioos:station:DISL:MHPA:1,2015-07-01T11:30:00Z,30.6671,-87.9365,1.046,0.25,1111122 
DISL,ioos:station:DISL:MHPA:1,2015-07-01T12:00:00Z,30.6671,-87.9365,1.062,0.25,1111122 
DISL,ioos:station:DISL:MHPA:1,2015-07-01T12:30:00Z,30.6671,-87.9365,1.087,0.25,1111122 
DISL,ioos:station:DISL:MHPA:1,2015-07-01T13:00:00Z,30.6671,-87.9365,1.118,0.25,1111122 
DISL,ioos:station:DISL:MHPA:1,2015-07-01T13:30:00Z,30.6671,-87.9365,1.154,0.25,1111122 
DISL,ioos:station:DISL:MHPA:1,2015-07-01T14:00:00Z,30.6671,-87.9365,1.188,0.25,1111122 
DISL,ioos:station:DISL:MHPA:1,2015-07-01T14:30:00Z,30.6671,-87.9365,1.244,0.25,1111122 
DISL,ioos:station:DISL:MHPA:1,2015-07-01T15:00:00Z,30.6671,-87.9365,1.289,0.26,1111122 
DISL,ioos:station:DISL:MHPA:1,2015-07-01T15:30:00Z,30.6671,-87.9365,1.315,0.25,1111122 
DISL,ioos:station:DISL:MHPA:1,2015-07-01T16:00:00Z,30.6671,-87.9365,1.338,0.25,1111122 
DISL,ioos:station:DISL:MHPA:1,2015-07-01T16:30:00Z,30.6671,-87.9365,1.356,0.25,1111122 
DISL,ioos:station:DISL:MHPA:1,2015-07-01T17:00:00Z,30.6671,-87.9365,1.361,0.25,1111122 
DISL,ioos:station:DISL:MHPA:1,2015-07-01T17:30:00Z,30.6671,-87.9365,1.368,0.26,1111122 
DISL,ioos:station:DISL:MHPA:1,2015-07-01T18:00:00Z,30.6671,-87.9365,1.381,0.26,1111122 
DISL,ioos:station:DISL:MHPA:1,2015-07-01T18:30:00Z,30.6671,-87.9365,1.362,0.26,1111122 
DISL,ioos:station:DISL:MHPA:1,2015-07-01T19:00:00Z,30.6671,-87.9365,1.367,0.27,1111122 
DISL,ioos:station:DISL:MHPA:1,2015-07-01T19:30:00Z,30.6671,-87.9365,1.341,0.26,1111122 
DISL,ioos:station:DISL:MHPA:1,2015-07-01T20:00:00Z,30.6671,-87.9365,1.3,0.26,1111122 
DISL,ioos:station:DISL:MHPA:1,2015-07-01T20:30:00Z,30.6671,-87.9365,1.257,0.27,1111122 
DISL,ioos:station:DISL:MHPA:1,2015-07-01T21:00:00Z,30.6671,-87.9365,1.224,0.28,1111122 
DISL,ioos:station:DISL:MHPA:1,2015-07-01T21:30:00Z,30.6671,-87.9365,1.194,0.29,1111122 
DISL,ioos:station:DISL:MHPA:1,2015-07-01T22:00:00Z,30.6671,-87.9365,1.169,0.3,1111122 
DISL,ioos:station:DISL:MHPA:1,2015-07-01T22:30:00Z,30.6671,-87.9365,1.142,0.31,1111122 
DISL,ioos:station:DISL:MHPA:1,2015-07-01T23:00:00Z,30.6671,-87.9365,1.149,0.3,1111122 
DISL,ioos:station:DISL:MHPA:1,2015-07-01T23:30:00Z,30.6671,-87.9365,1.145,0.3,1111122 
DISL,ioos:station:DISL:MHPA:1,2015-07-02T00:00:00Z,30.6671,-87.9365,1.062,0.29,1111122 
DISL,ioos:station:DISL:MHPA:1,2015-07-02T00:30:00Z,30.6671,-87.9365,0.985,0.27,1111122 
DISL,ioos:station:DISL:MHPA:1,2015-07-02T01:00:00Z,30.6671,-87.9365,0.924,0.27,1111122 
DISL,ioos:station:DISL:MHPA:1,2015-07-02T01:30:00Z,30.6671,-87.9365,0.88,0.27,1111122 
DISL,ioos:station:DISL:MHPA:1,2015-07-02T02:00:00Z,30.6671,-87.9365,0.85,0.27,1111122 
DISL,ioos:station:DISL:MHPA:1,2015-07-02T02:30:00Z,30.6671,-87.9365,0.827,0.27,1111122 
DISL,ioos:station:DISL:MHPA:1,2015-07-02T03:00:00Z,30.6671,-87.9365,0.819,0.28,1111122 
DISL,ioos:station:DISL:MHPA:1,2015-07-02T03:30:00Z,30.6671,-87.9365,0.797,0.28,1111122 
DISL,ioos:station:DISL:MHPA:1,2015-07-02T04:00:00Z,30.6671,-87.9365,0.772,0.28,1111122 
DISL,ioos:station:DISL:MHPA:1,2015-07-02T04:30:00Z,30.6671,-87.9365,0.751,0.27,1111122 
DISL,ioos:station:DISL:MHPA:1,2015-07-02T05:00:00Z,30.6671,-87.9365,0.732,0.28,1111122 
DISL,ioos:station:DISL:MHPA:1,2015-07-02T05:30:00Z,30.6671,-87.9365,0.721,0.28,1111122 
DISL,ioos:station:DISL:MHPA:1,2015-07-02T06:00:00Z,30.6671,-87.9365,0.719,0.28,1111122 
DISL,ioos:station:DISL:MHPA:1,2015-07-02T06:30:00Z,30.6671,-87.9365,0.72,0.28,1111122 
DISL,ioos:station:DISL:MHPA:1,2015-07-02T07:00:00Z,30.6671,-87.9365,0.741,0.28,1111122 
DISL,ioos:station:DISL:MHPA:1,2015-07-02T07:30:00Z,30.6671,-87.9365,0.777,0.28,1111122 
DISL,ioos:station:DISL:MHPA:1,2015-07-02T08:00:00Z,30.6671,-87.9365,0.816,0.28,1111122 
DISL,ioos:station:DISL:MHPA:1,2015-07-02T08:30:00Z,30.6671,-87.9365,0.863,0.28,1111122 
DISL,ioos:station:DISL:MHPA:1,2015-07-02T09:00:00Z,30.6671,-87.9365,0.919,0.28,1111122 
DISL,ioos:station:DISL:MHPA:1,2015-07-02T09:30:00Z,30.6671,-87.9365,0.966,0.28,1111122 
DISL,ioos:station:DISL:MHPA:1,2015-07-02T10:00:00Z,30.6671,-87.9365,1.015,0.28,1111122 
DISL,ioos:station:DISL:MHPA:1,2015-07-02T10:30:00Z,30.6671,-87.9365,1.071,0.28,1111122 
DISL,ioos:station:DISL:MHPA:1,2015-07-02T11:00:00Z,30.6671,-87.9365,1.119,0.28,1111122 
DISL,ioos:station:DISL:MHPA:1,2015-07-02T11:30:00Z,30.6671,-87.9365,1.149,0.28,1111122 
DISL,ioos:station:DISL:MHPA:1,2015-07-02T12:00:00Z,30.6671,-87.9365,1.188,0.28,1111122 
DISL,ioos:station:DISL:MHPA:1,2015-07-02T12:30:00Z,30.6671,-87.9365,1.23,0.28,1111122 
DISL,ioos:station:DISL:MHPA:1,2015-07-02T13:00:00Z,30.6671,-87.9365,1.26,0.28,1111122 
DISL,ioos:station:DISL:MHPA:1,2015-07-02T13:30:00Z,30.6671,-87.9365,1.296,0.28,1111122 
DISL,ioos:station:DISL:MHPA:1,2015-07-02T14:00:00Z,30.6671,-87.9365,1.327,0.28,1111122 
DISL,ioos:station:DISL:MHPA:1,2015-07-02T14:30:00Z,30.6671,-87.9365,1.351,0.28,1111122 
DISL,ioos:station:DISL:MHPA:1,2015-07-02T15:00:00Z,30.6671,-87.9365,1.329,0.28,1111122 
DISL,ioos:station:DISL:MHPA:1,2015-07-02T15:30:00Z,30.6671,-87.9365,1.396,0.28,1111122 
DISL,ioos:station:DISL:MHPA:1,2015-07-02T16:00:00Z,30.6671,-87.9365,1.473,0.28,1111122 
DISL,ioos:station:DISL:MHPA:1,2015-07-02T16:30:00Z,30.6671,-87.9365,1.452,0.28,1111122 
DISL,ioos:station:DISL:MHPA:1,2015-07-02T17:00:00Z,30.6671,-87.9365,1.472,0.28,1111122 
DISL,ioos:station:DISL:MHPA:1,2015-07-02T17:30:00Z,30.6671,-87.9365,1.498,0.28,1111122 
DISL,ioos:station:DISL:MHPA:1,2015-07-02T18:00:00Z,30.6671,-87.9365,1.494,0.28,1111122 
DISL,ioos:station:DISL:MHPA:1,2015-07-02T18:30:00Z,30.6671,-87.9365,1.449,0.28,1111122 
DISL,ioos:station:DISL:MHPA:1,2015-07-02T19:00:00Z,30.6671,-87.9365,1.405,0.28,1111122 
DISL,ioos:station:DISL:MHPA:1,2015-07-02T19:30:00Z,30.6671,-87.9365,1.404,0.28,1111122 
DISL,ioos:station:DISL:MHPA:1,2015-07-02T20:00:00Z,30.6671,-87.9365,1.374,0.28,1111122 
DISL,ioos:station:DISL:MHPA:1,2015-07-02T20:30:00Z,30.6671,-87.9365,1.332,0.28,1111122 
DISL,ioos:station:DISL:MHPA:1,2015-07-02T21:00:00Z,30.6671,-87.9365,1.3,0.29,1111122 
DISL,ioos:station:DISL:MHPA:1,2015-07-02T21:30:00Z,30.6671,-87.9365,1.276,0.3,1111122 
DISL,ioos:station:DISL:MHPA:1,2015-07-02T22:00:00Z,30.6671,-87.9365,1.248,0.3,1111122 
DISL,ioos:station:DISL:MHPA:1,2015-07-02T22:30:00Z,30.6671,-87.9365,1.216,0.3,1111122 
DISL,ioos:station:DISL:MHPA:1,2015-07-02T23:00:00Z,30.6671,-87.9365,1.177,0.3,1111122 
DISL,ioos:station:DISL:MHPA:1,2015-07-02T23:30:00Z,30.6671,-87.9365,1.138,0.29,1111122 
DISL,ioos:station:DISL:MHPA:1,2015-07-03T00:00:00Z,30.6671,-87.9365,1.102,0.29,1111122 
DISL,ioos:station:DISL:MHPA:1,2015-07-03T00:30:00Z,30.6671,-87.9365,1.061,0.3,1111122 
DISL,ioos:station:DISL:MHPA:1,2015-07-03T01:00:00Z,30.6671,-87.9365,1.021,0.3,1111122 
DISL,ioos:station:DISL:MHPA:1,2015-07-03T01:30:00Z,30.6671,-87.9365,0.985,0.29,1111122 
DISL,ioos:station:DISL:MHPA:1,2015-07-03T02:00:00Z,30.6671,-87.9365,0.951,0.29,1111122 
DISL,ioos:station:DISL:MHPA:1,2015-07-03T02:30:00Z,30.6671,-87.9365,0.922,0.29,1111122 
DISL,ioos:station:DISL:MHPA:1,2015-07-03T03:00:00Z,30.6671,-87.9365,0.897,0.29,1111122 
DISL,ioos:station:DISL:MHPA:1,2015-07-03T03:30:00Z,30.6671,-87.9365,0.877,0.29,1111122 
DISL,ioos:station:DISL:MHPA:1,2015-07-03T04:00:00Z,30.6671,-87.9365,0.866,0.29,1111122 
DISL,ioos:station:DISL:MHPA:1,2015-07-03T04:30:00Z,30.6671,-87.9365,0.856,0.29,1111122 
DISL,ioos:station:DISL:MHPA:1,2015-07-03T05:00:00Z,30.6671,-87.9365,0.838,0.29,1111122 
DISL,ioos:station:DISL:MHPA:1,2015-07-03T05:30:00Z,30.6671,-87.9365,0.824,0.29,1111122 
DISL,ioos:station:DISL:MHPA:1,2015-07-03T06:00:00Z,30.6671,-87.9365,0.829,0.29,1111122 
DISL,ioos:station:DISL:MHPA:1,2015-07-03T06:30:00Z,30.6671,-87.9365,0.844,0.29,1111122 
DISL,ioos:station:DISL:MHPA:1,2015-07-03T07:00:00Z,30.6671,-87.9365,0.859,0.3,1111122 
DISL,ioos:station:DISL:MHPA:1,2015-07-03T07:30:00Z,30.6671,-87.9365,0.878,0.29,1111122 
DISL,ioos:station:DISL:MHPA:1,2015-07-03T08:00:00Z,30.6671,-87.9365,0.907,0.29,1111122 
DISL,ioos:station:DISL:MHPA:1,2015-07-03T08:30:00Z,30.6671,-87.9365,0.941,0.3,1111122 
DISL,ioos:station:DISL:MHPA:1,2015-07-03T09:00:00Z,30.6671,-87.9365,0.973,0.3,1111122 
DISL,ioos:station:DISL:MHPA:1,2015-07-03T09:30:00Z,30.6671,-87.9365,1.011,0.3,1111122 
DISL,ioos:station:DISL:MHPA:1,2015-07-03T10:00:00Z,30.6671,-87.9365,1.052,0.3,1111122 
DISL,ioos:station:DISL:MHPA:1,2015-07-03T10:30:00Z,30.6671,-87.9365,1.088,0.29,1111122 
DISL,ioos:station:DISL:MHPA:1,2015-07-03T11:00:00Z,30.6671,-87.9365,1.113,0.29,1111122 
DISL,ioos:station:DISL:MHPA:1,2015-07-03T11:30:00Z,30.6671,-87.9365,1.121,0.3,1111122 
DISL,ioos:station:DISL:MHPA:1,2015-07-03T12:00:00Z,30.6671,-87.9365,1.144,0.3,1111122 
DISL,ioos:station:DISL:MHPA:1,2015-07-03T12:30:00Z,30.6671,-87.9365,1.173,0.3,1111122 
DISL,ioos:station:DISL:MHPA:1,2015-07-03T13:00:00Z,30.6671,-87.9365,1.197,0.3,1111122 
DISL,ioos:station:DISL:MHPA:1,2015-07-03T13:30:00Z,30.6671,-87.9365,1.221,0.3,1111122 
DISL,ioos:station:DISL:MHPA:1,2015-07-03T14:00:00Z,30.6671,-87.9365,1.247,0.3,1111122 
DISL,ioos:station:DISL:MHPA:1,2015-07-03T14:30:00Z,30.6671,-87.9365,1.278,0.3,1111122 
DISL,ioos:station:DISL:MHPA:1,2015-07-03T15:00:00Z,30.6671,-87.9365,1.317,0.3,1111122 
DISL,ioos:station:DISL:MHPA:1,2015-07-03T15:30:00Z,30.6671,-87.9365,1.369,0.3,1111122 
DISL,ioos:station:DISL:MHPA:1,2015-07-03T16:00:00Z,30.6671,-87.9365,1.401,0.3,1111122 
DISL,ioos:station:DISL:MHPA:1,2015-07-03T16:30:00Z,30.6671,-87.9365,1.421,0.3,1111122 
DISL,ioos:station:DISL:MHPA:1,2015-07-03T17:00:00Z,30.6671,-87.9365,1.451,0.32,1111122 
DISL,ioos:station:DISL:MHPA:1,2015-07-03T17:30:00Z,30.6671,-87.9365,1.461,0.32,1111122 
DISL,ioos:station:DISL:MHPA:1,2015-07-03T18:00:00Z,30.6671,-87.9365,1.471,0.33,1111122 
DISL,ioos:station:DISL:MHPA:1,2015-07-03T18:30:00Z,30.6671,-87.9365,1.479,0.34,1111122 
DISL,ioos:station:DISL:MHPA:1,2015-07-03T19:00:00Z,30.6671,-87.9365,1.468,0.34,1111122 
DISL,ioos:station:DISL:MHPA:1,2015-07-03T19:30:00Z,30.6671,-87.9365,1.455,0.31,1111122 
DISL,ioos:station:DISL:MHPA:1,2015-07-03T20:00:00Z,30.6671,-87.9365,1.434,0.33,1111122 
DISL,ioos:station:DISL:MHPA:1,2015-07-03T20:30:00Z,30.6671,-87.9365,1.423,0.33,1111122 
DISL,ioos:station:DISL:MHPA:1,2015-07-03T21:00:00Z,30.6671,-87.9365,1.411,0.34,1111122 
DISL,ioos:station:DISL:MHPA:1,2015-07-03T21:30:00Z,30.6671,-87.9365,1.398,0.34,1111122 
DISL,ioos:station:DISL:MHPA:1,2015-07-03T22:00:00Z,30.6671,-87.9365,1.361,0.34,1111122 
DISL,ioos:station:DISL:MHPA:1,2015-07-03T22:30:00Z,30.6671,-87.9365,1.313,0.35,1111122 
DISL,ioos:station:DISL:MHPA:1,2015-07-03T23:00:00Z,30.6671,-87.9365,1.272,0.35,1111122 
DISL,ioos:station:DISL:MHPA:1,2015-07-03T23:30:00Z,30.6671,-87.9365,1.236,0.35,1111122 
DISL,ioos:station:DISL:MHPA:1,2015-07-04T00:00:00Z,30.6671,-87.9365,1.19,0.35,1111122 
DISL,ioos:station:DISL:MHPA:1,2015-07-04T00:30:00Z,30.6671,-87.9365,1.15,0.35,1111122 
DISL,ioos:station:DISL:MHPA:1,2015-07-04T01:00:00Z,30.6671,-87.9365,1.116,0.34,1111122 
DISL,ioos:station:DISL:MHPA:1,2015-07-04T01:30:00Z,30.6671,-87.9365,1.085,0.34,1111122 
DISL,ioos:station:DISL:MHPA:1,2015-07-04T02:00:00Z,30.6671,-87.9365,1.054,0.33,1111122 
DISL,ioos:station:DISL:MHPA:1,2015-07-04T02:30:00Z,30.6671,-87.9365,1.028,0.33,1111122 
DISL,ioos:station:DISL:MHPA:1,2015-07-04T03:00:00Z,30.6671,-87.9365,1.003,0.32,1111122 
DISL,ioos:station:DISL:MHPA:1,2015-07-04T03:30:00Z,30.6671,-87.9365,0.981,0.32,1111122 
DISL,ioos:station:DISL:MHPA:1,2015-07-04T04:00:00Z,30.6671,-87.9365,0.964,0.32,1111122 
DISL,ioos:station:DISL:MHPA:1,2015-07-04T04:30:00Z,30.6671,-87.9365,0.947,0.32,1111122 
DISL,ioos:station:DISL:MHPA:1,2015-07-04T05:00:00Z,30.6671,-87.9365,0.927,0.32,1111122 
DISL,ioos:station:DISL:MHPA:1,2015-07-04T05:30:00Z,30.6671,-87.9365,0.913,0.32,1111122 
DISL,ioos:station:DISL:MHPA:1,2015-07-04T06:00:00Z,30.6671,-87.9365,0.903,0.31,1111122 
DISL,ioos:station:DISL:MHPA:1,2015-07-04T06:30:00Z,30.6671,-87.9365,0.908,0.32,1111122 
DISL,ioos:station:DISL:MHPA:1,2015-07-04T07:00:00Z,30.6671,-87.9365,0.92,0.32,1111122 
DISL,ioos:station:DISL:MHPA:1,2015-07-04T07:30:00Z,30.6671,-87.9365,0.944,0.32,1111122 
DISL,ioos:station:DISL:MHPA:1,2015-07-04T08:00:00Z,30.6671,-87.9365,0.965,0.32,1111122 
DISL,ioos:station:DISL:MHPA:1,2015-07-04T08:30:00Z,30.6671,-87.9365,0.984,0.32,1111122 
DISL,ioos:station:DISL:MHPA:1,2015-07-04T09:00:00Z,30.6671,-87.9365,1.001,0.32,1111122 
DISL,ioos:station:DISL:MHPA:1,2015-07-04T09:30:00Z,30.6671,-87.9365,1.025,0.32,1111122 
DISL,ioos:station:DISL:MHPA:1,2015-07-04T10:00:00Z,30.6671,-87.9365,1.057,0.32,1111122 
DISL,ioos:station:DISL:MHPA:1,2015-07-04T10:30:00Z,30.6671,-87.9365,1.096,0.32,1111122 
DISL,ioos:station:DISL:MHPA:1,2015-07-04T11:00:00Z,30.6671,-87.9365,1.125,0.32,1111122 
DISL,ioos:station:DISL:MHPA:1,2015-07-04T11:30:00Z,30.6671,-87.9365,1.138,0.32,1111122 
DISL,ioos:station:DISL:MHPA:1,2015-07-04T12:00:00Z,30.6671,-87.9365,1.16,0.32,1111122 
DISL,ioos:station:DISL:MHPA:1,2015-07-04T12:30:00Z,30.6671,-87.9365,1.184,0.32,1111122 
DISL,ioos:station:DISL:MHPA:1,2015-07-04T13:00:00Z,30.6671,-87.9365,1.194,0.32,1111122 
DISL,ioos:station:DISL:MHPA:1,2015-07-04T13:30:00Z,30.6671,-87.9365,1.218,0.32,1111122 
DISL,ioos:station:DISL:MHPA:1,2015-07-04T14:00:00Z,30.6671,-87.9365,1.242,0.32,1111122 
DISL,ioos:station:DISL:MHPA:1,2015-07-04T14:30:00Z,30.6671,-87.9365,1.243,0.32,1111122 
DISL,ioos:station:DISL:MHPA:1,2015-07-04T15:00:00Z,30.6671,-87.9365,1.275,0.32,1111122 
DISL,ioos:station:DISL:MHPA:1,2015-07-04T15:30:00Z,30.6671,-87.9365,1.307,0.33,1111122 
DISL,ioos:station:DISL:MHPA:1,2015-07-04T16:00:00Z,30.6671,-87.9365,1.336,0.33,1111122 
DISL,ioos:station:DISL:MHPA:1,2015-07-04T16:30:00Z,30.6671,-87.9365,1.371,0.32,1111122 
DISL,ioos:station:DISL:MHPA:1,2015-07-04T17:00:00Z,30.6671,-87.9365,1.385,0.32,1111122 
DISL,ioos:station:DISL:MHPA:1,2015-07-04T17:30:00Z,30.6671,-87.9365,1.413,0.32,1111122 
DISL,ioos:station:DISL:MHPA:1,2015-07-04T18:00:00Z,30.6671,-87.9365,1.441,0.33,1111122 
DISL,ioos:station:DISL:MHPA:1,2015-07-04T18:30:00Z,30.6671,-87.9365,1.444,0.33,1111122 
DISL,ioos:station:DISL:MHPA:1,2015-07-04T19:00:00Z,30.6671,-87.9365,1.461,0.33,1111122 
DISL,ioos:station:DISL:MHPA:1,2015-07-04T19:30:00Z,30.6671,-87.9365,1.469,0.33,1111122 
DISL,ioos:station:DISL:MHPA:1,2015-07-04T20:00:00Z,30.6671,-87.9365,1.45,0.34,1111122 
DISL,ioos:station:DISL:MHPA:1,2015-07-04T20:30:00Z,30.6671,-87.9365,1.443,0.33,1111122 
DISL,ioos:station:DISL:MHPA:1,2015-07-04T21:00:00Z,30.6671,-87.9365,1.432,0.34,1111122 
DISL,ioos:station:DISL:MHPA:1,2015-07-04T21:30:00Z,30.6671,-87.9365,1.399,0.34,1111122 
DISL,ioos:station:DISL:MHPA:1,2015-07-04T22:00:00Z,30.6671,-87.9365,1.373,0.34,1111122 
DISL,ioos:station:DISL:MHPA:1,2015-07-04T22:30:00Z,30.6671,-87.9365,1.335,0.34,1111122 
DISL,ioos:station:DISL:MHPA:1,2015-07-04T23:00:00Z,30.6671,-87.9365,1.282,0.34,1111122 
DISL,ioos:station:DISL:MHPA:1,2015-07-04T23:30:00Z,30.6671,-87.9365,1.234,0.34,1111122 
DISL,ioos:station:DISL:MHPA:1,2015-07-05T00:00:00Z,30.6671,-87.9365,1.165,0.34,1111122 
DISL,ioos:station:DISL:MHPA:1,2015-07-05T00:30:00Z,30.6671,-87.9365,1.114,0.34,1111122 
DISL,ioos:station:DISL:MHPA:1,2015-07-05T01:00:00Z,30.6671,-87.9365,1.083,0.34,1111122 
DISL,ioos:station:DISL:MHPA:1,2015-07-05T01:30:00Z,30.6671,-87.9365,1.05,0.34,1111122 
DISL,ioos:station:DISL:MHPA:1,2015-07-05T02:00:00Z,30.6671,-87.9365,1.0,0.34,1111122 
DISL,ioos:station:DISL:MHPA:1,2015-07-05T02:30:00Z,30.6671,-87.9365,0.948,0.34,1111122 
DISL,ioos:station:DISL:MHPA:1,2015-07-05T03:00:00Z,30.6671,-87.9365,0.915,0.34,1111122 
DISL,ioos:station:DISL:MHPA:1,2015-07-05T03:30:00Z,30.6671,-87.9365,0.926,0.34,1111122 
DISL,ioos:station:DISL:MHPA:1,2015-07-05T04:00:00Z,30.6671,-87.9365,0.901,0.34,1111122 
DISL,ioos:station:DISL:MHPA:1,2015-07-05T04:30:00Z,30.6671,-87.9365,0.873,0.34,1111122 
DISL,ioos:station:DISL:MHPA:1,2015-07-05T05:00:00Z,30.6671,-87.9365,0.849,0.34,1111122 
DISL,ioos:station:DISL:MHPA:1,2015-07-05T05:30:00Z,30.6671,-87.9365,0.822,0.33,1111122 
DISL,ioos:station:DISL:MHPA:1,2015-07-05T06:00:00Z,30.6671,-87.9365,0.793,0.33,1111122 
DISL,ioos:station:DISL:MHPA:1,2015-07-05T06:30:00Z,30.6671,-87.9365,0.774,0.33,1111122 
DISL,ioos:station:DISL:MHPA:1,2015-07-05T07:00:00Z,30.6671,-87.9365,0.78,0.33,1111122 
DISL,ioos:station:DISL:MHPA:1,2015-07-05T07:30:00Z,30.6671,-87.9365,0.799,0.34,1111122 
DISL,ioos:station:DISL:MHPA:1,2015-07-05T08:00:00Z,30.6671,-87.9365,0.822,0.34,1111122 
DISL,ioos:station:DISL:MHPA:1,2015-07-05T08:30:00Z,30.6671,-87.9365,0.854,0.34,1111122 
DISL,ioos:station:DISL:MHPA:1,2015-07-05T09:00:00Z,30.6671,-87.9365,0.884,0.34,1111122 
DISL,ioos:station:DISL:MHPA:1,2015-07-05T09:30:00Z,30.6671,-87.9365,0.923,0.34,1111122 
DISL,ioos:station:DISL:MHPA:1,2015-07-05T10:00:00Z,30.6671,-87.9365,0.967,0.34,1111122 
DISL,ioos:station:DISL:MHPA:1,2015-07-05T10:30:00Z,30.6671,-87.9365,1.009,0.33,1111122 
DISL,ioos:station:DISL:MHPA:1,2015-07-05T11:00:00Z,30.6671,-87.9365,1.052,0.33,1111122 
DISL,ioos:station:DISL:MHPA:1,2015-07-05T11:30:00Z,30.6671,-87.9365,1.079,0.33,1111122 
DISL,ioos:station:DISL:MHPA:1,2015-07-05T12:00:00Z,30.6671,-87.9365,1.107,0.33,1111122 
DISL,ioos:station:DISL:MHPA:1,2015-07-05T12:30:00Z,30.6671,-87.9365,1.183,0.33,1111122 
DISL,ioos:station:DISL:MHPA:1,2015-07-05T13:00:00Z,30.6671,-87.9365,1.271,0.33,1111122 
DISL,ioos:station:DISL:MHPA:1,2015-07-05T13:30:00Z,30.6671,-87.9365,1.199,0.33,1111122 
DISL,ioos:station:DISL:MHPA:1,2015-07-05T14:00:00Z,30.6671,-87.9365,1.141,0.33,1111122 
DISL,ioos:station:DISL:MHPA:1,2015-07-05T14:30:00Z,30.6671,-87.9365,1.192,0.34,1111122 
DISL,ioos:station:DISL:MHPA:1,2015-07-05T15:00:00Z,30.6671,-87.9365,1.271,0.34,1111122 
DISL,ioos:station:DISL:MHPA:1,2015-07-05T15:30:00Z,30.6671,-87.9365,1.284,0.34,1111122 
DISL,ioos:station:DISL:MHPA:1,2015-07-05T16:00:00Z,30.6671,-87.9365,1.284,0.34,1111122 
DISL,ioos:station:DISL:MHPA:1,2015-07-05T16:30:00Z,30.6671,-87.9365,1.268,0.34,1111122 
DISL,ioos:station:DISL:MHPA:1,2015-07-05T17:00:00Z,30.6671,-87.9365,1.268,0.34,1111122 
DISL,ioos:station:DISL:MHPA:1,2015-07-05T17:30:00Z,30.6671,-87.9365,1.323,0.34,1111122 
DISL,ioos:station:DISL:MHPA:1,2015-07-05T18:00:00Z,30.6671,-87.9365,1.394,0.34,1111122 
DISL,ioos:station:DISL:MHPA:1,2015-07-05T18:30:00Z,30.6671,-87.9365,1.415,0.34,1111122 
DISL,ioos:station:DISL:MHPA:1,2015-07-05T19:00:00Z,30.6671,-87.9365,1.377,0.34,1111122 
DISL,ioos:station:DISL:MHPA:1,2015-07-05T19:30:00Z,30.6671,-87.9365,1.374,0.34,1111122 
DISL,ioos:station:DISL:MHPA:1,2015-07-05T20:00:00Z,30.6671,-87.9365,1.386,0.34,1111122 
DISL,ioos:station:DISL:MHPA:1,2015-07-05T20:30:00Z,30.6671,-87.9365,1.378,0.33,1111122 
DISL,ioos:station:DISL:MHPA:1,2015-07-05T21:00:00Z,30.6671,-87.9365,1.357,0.34,1111122 
DISL,ioos:station:DISL:MHPA:1,2015-07-05T21:30:00Z,30.6671,-87.9365,1.281,0.34,1111122 
DISL,ioos:station:DISL:MHPA:1,2015-07-05T22:00:00Z,30.6671,-87.9365,1.202,0.34,1111122 
DISL,ioos:station:DISL:MHPA:1,2015-07-05T22:30:00Z,30.6671,-87.9365,1.157,0.34,1111122 
DISL,ioos:station:DISL:MHPA:1,2015-07-05T23:00:00Z,30.6671,-87.9365,1.109,0.34,1111122 
DISL,ioos:station:DISL:MHPA:1,2015-07-05T23:30:00Z,30.6671,-87.9365,1.067,0.34,1111122 
DISL,ioos:station:DISL:MHPA:1,2015-07-06T00:00:00Z,30.6671,-87.9365,1.078,0.34,1111122 
DISL,ioos:station:DISL:MHPA:1,2015-07-06T00:30:00Z,30.6671,-87.9365,1.157,0.34,1111122 
DISL,ioos:station:DISL:MHPA:1,2015-07-06T01:00:00Z,30.6671,-87.9365,1.139,0.34,1111122 
DISL,ioos:station:DISL:MHPA:1,2015-07-06T01:30:00Z,30.6671,-87.9365,1.091,0.34,1111122 
DISL,ioos:station:DISL:MHPA:1,2015-07-06T02:00:00Z,30.6671,-87.9365,1.054,0.34,1111122 
DISL,ioos:station:DISL:MHPA:1,2015-07-06T02:30:00Z,30.6671,-87.9365,1.002,0.35,1111122 
DISL,ioos:station:DISL:MHPA:1,2015-07-06T03:00:00Z,30.6671,-87.9365,0.954,0.35,1111122 
DISL,ioos:station:DISL:MHPA:1,2015-07-06T03:30:00Z,30.6671,-87.9365,0.912,0.36,1111122 
DISL,ioos:station:DISL:MHPA:1,2015-07-06T04:00:00Z,30.6671,-87.9365,0.872,0.36,1111122 
DISL,ioos:station:DISL:MHPA:1,2015-07-06T04:30:00Z,30.6671,-87.9365,0.836,0.36,1111122 
DISL,ioos:station:DISL:MHPA:1,2015-07-06T05:00:00Z,30.6671,-87.9365,0.838,0.36,1111122 
DISL,ioos:station:DISL:MHPA:1,2015-07-06T05:30:00Z,30.6671,-87.9365,0.862,0.36,1111122 
DISL,ioos:station:DISL:MHPA:1,2015-07-06T06:00:00Z,30.6671,-87.9365,0.875,0.36,1111122 
DISL,ioos:station:DISL:MHPA:1,2015-07-06T06:30:00Z,30.6671,-87.9365,0.908,0.35,1111122 
DISL,ioos:station:DISL:MHPA:1,2015-07-06T07:00:00Z,30.6671,-87.9365,0.897,0.35,1111122 
DISL,ioos:station:DISL:MHPA:1,2015-07-06T07:30:00Z,30.6671,-87.9365,0.858,0.35,1111122 
DISL,ioos:station:DISL:MHPA:1,2015-07-06T08:00:00Z,30.6671,-87.9365,0.862,0.34,1111122 
DISL,ioos:station:DISL:MHPA:1,2015-07-06T08:30:00Z,30.6671,-87.9365,0.894,0.34,1111122 
DISL,ioos:station:DISL:MHPA:1,2015-07-06T09:00:00Z,30.6671,-87.9365,0.886,0.34,1111122 
DISL,ioos:station:DISL:MHPA:1,2015-07-06T09:30:00Z,30.6671,-87.9365,0.907,0.34,1111122 
DISL,ioos:station:DISL:MHPA:1,2015-07-06T10:00:00Z,30.6671,-87.9365,0.97,0.34,1111122 
DISL,ioos:station:DISL:MHPA:1,2015-07-06T10:30:00Z,30.6671,-87.9365,1.01,0.35,1111122 
DISL,ioos:station:DISL:MHPA:1,2015-07-06T11:00:00Z,30.6671,-87.9365,0.987,0.35,1111122 
DISL,ioos:station:DISL:MHPA:1,2015-07-06T11:30:00Z,30.6671,-87.9365,1.011,0.35,1111122 
DISL,ioos:station:DISL:MHPA:1,2015-07-06T12:00:00Z,30.6671,-87.9365,1.05,0.34,1111122 
DISL,ioos:station:DISL:MHPA:1,2015-07-06T12:30:00Z,30.6671,-87.9365,1.03,0.35,1111122 
DISL,ioos:station:DISL:MHPA:1,2015-07-06T13:00:00Z,30.6671,-87.9365,1.026,0.35,1111122 
DISL,ioos:station:DISL:MHPA:1,2015-07-06T13:30:00Z,30.6671,-87.9365,1.04,0.35,1111122 
DISL,ioos:station:DISL:MHPA:1,2015-07-06T14:00:00Z,30.6671,-87.9365,1.031,0.35,1111122 
DISL,ioos:station:DISL:MHPA:1,2015-07-06T14:30:00Z,30.6671,-87.9365,1.054,0.35,1111122 
DISL,ioos:station:DISL:MHPA:1,2015-07-06T15:00:00Z,30.6671,-87.9365,1.082,0.35,1111122 
DISL,ioos:station:DISL:MHPA:1,2015-07-06T15:30:00Z,30.6671,-87.9365,1.062,0.35,1111122 